sat.trackr.live / text

‹ back to catalog

STARLINK-34024

NORAD 64031 · 2025-102K

PAYLOAD ACTIVE UNKNOWN

§ Identity

Operator
Country
US
Launch date
2025-05-16
Launch site
AFWTR
Launch vehicle
Mass (kg)
RCS (m²)

Purposes: comms

External: N2YO · Heavens-Above · Gunter

§ Orbital elements

Epoch: 2026-05-24T19:32:16.788480Z

Period
96.11 min
Inclination
70.0008°
Eccentricity
0.0003052
Mean motion
14.98344842 rev/d
Perigee alt
569.9 km
Apogee alt
574.1 km
Semi-major
6,950.1 km
B*
4.5619e-4
RAAN
282.5655°
Arg perigee
267.6914°
Mean anomaly
92.3896°
Rev number
5,729

§ Raw data

STARLINK-340241 64031U 25102K   26144.81408320  .00005356  00000+0  45619-3 0  99932 64031  70.0008 282.5655 0003052 267.6914  92.3896 14.98344842 57296

JSON: /api/v1/satellites/64031 · /tle

For live sub-satellite position, see the globe view (requires WebGL).

§ Visibility from observer

Set your observer location to see the next 7 days of passes ≥ 10°. The values pass through the URL so the page stays shareable.

No JS? Fill the form by hand. The geolocation button needs JavaScript.